Regional Weather Roundup
Issued by NWS Albany, NY

Home | Current Version | Previous Version | Graphics & Text | Print | Product List | Glossary On
Versions: 1 2 3 4 5 6 7 8 9 10 11 12 13 14 15 16 17 18 19 20 21 22 23 24 25 26 27
000
ASUS41 KALY 261710
RWRALY

NEW YORK STATE HOURLY WEATHER ROUNDUP
NATIONAL WEATHER SERVICE ALBANY NY
100 PM EDT THU MAY 26 2016

NOTE: "FAIR" INDICATES FEW OR NO CLOUDS BELOW 12,000 FEET WITH NO
SIGNIFICANT WEATHER AND/OR NO OBSTRUCTIONS TO VISIBILITY.

NYZ032-033-038>043-046>054-057>066-NYZ062>081-082-084-261800-
EAST


CITY           SKY/WX    TMP DP  RH WIND       PRES   REMARKS
ALBANY         PTSUNNY   83  59  44 CALM      30.07F
GLENS FALLS    SUNNY     78  55  44 CALM      30.07F
POUGHKEEPSIE   SUNNY     87  59  38 CALM      30.05F
NEWBURGH       MOSUNNY   84  57  39 CALM      30.08F
MONTGOMERY     MOSUNNY   85  61  44 CALM      30.06F
WHITE PLAINS   MOSUNNY   85  55  35 S6        30.07F
ISLIP          PTSUNNY   83  55  38 S10       30.08F
NEW YORK CITY  PTSUNNY   90  57  32 SW8       30.05F
CENTRAL PARK   SUNNY     88  52  29 VRB5      30.09F
$$

NYZ005>009-017-018-044>046-055-056-261800-
CENTRAL


CITY           SKY/WX    TMP DP  RH WIND       PRES   REMARKS
FULTON         PTSUNNY   84  60  44 SE6       30.02F
SYRACUSE       CLOUDY    83  60  45 NE6       30.01F
ROME           MOSUNNY   83  59  44 E3        30.04F
ELMIRA         PTSUNNY   83  55  38 VRB7      30.05F
BINGHAMTON     CLOUDY    76  51  41 SW7       30.09F
MONTICELLO     MOSUNNY   81  54  39 S5        30.13F
$$

NYZ026>034-041>043-087-261800-
NORTH


CITY           SKY/WX    TMP DP  RH WIND       PRES   REMARKS
WATERTOWN      CLOUDY    80  56  43 W8        30.03F
FORT DRUM      NOT AVBL
MASSENA        SUNNY     75  49  39 NE13      30.07F
SARANAC LAKE   MOSUNNY   77  49  37 E9        30.08F
PLATTSBURGH    MOSUNNY   72  45  37 E6        30.11F
$$

NYZ001>004-010>016-019>021-085-261800-
WEST


CITY           SKY/WX    TMP DP  RH WIND       PRES   REMARKS
NIAGARA FALLS  PTSUNNY   82  62  50 SW14      30.00S
BUFFALO        PTSUNNY   81  60  48 SW17G25   30.00F
DUNKIRK        PTSUNNY   83  63  50 W8G17     30.01S
JAMESTOWN      CLOUDY    75  61  60 SW10      30.07S
WELLSVILLE     MOSUNNY   79  57  46 SW8G17    30.11F
ROCHESTER      CLOUDY    80  57  45 SW13      30.02F
PENN YAN       PTSUNNY   84  54  35 SW10      30.05F
$$

             KEY
       WCI = WIND CHILL INDEX
       VSB = VISIBILITY
       HX  = HEAT INDEX
$$




USA.gov is the U.S. government's official web portal to all federal, state and local government web resources and services.